Location: Poughquag
(41.6090°N, 73.6820°W)
Time: 11:01:15
(UTC-05:00)

ISS - Pass Details

Date: 19 January 2020
Orbit: 415 x 422 km, 51.6° (Epoch: 26 February)

Event Time Altitude Azimuth Distance (km) Brightness Sun altitude
Rises 19:14:28 0° 232° (SW) 2,367 0.9 -26.0°
Reaches altitude 10° 19:16:33 10° 232° (SW) 1,504 -0.3 -26.4°
Enters shadow 19:17:52 22° 231° (SW) 979 -1.4 -26.6°
